Time,TemperatureF,DewpointF,PressureIn,WindDirection,WindDirectionDegrees,WindSpeedMPH,WindSpeedGustMPH,Humidity,HourlyPrecipIn,Conditions,Clouds,dailyrainin,SoftwareType,DateUTC
2014-01-02 00:00:00,8.1,0.0,28.82,WNW,302,4.5,4.9,69,0.00,,---,0.00,VWS V14.01,2014-01-02 06:00:00,
2014-01-02 00:06:00,8.1,0.0,28.82,NW,310,0.0,4.9,69,0.00,,---,0.00,VWS V14.01,2014-01-02 06:06:00,
2014-01-02 00:11:00,7.9,-0.2,28.82,WNW,299,0.0,5.4,69,0.00,,---,0.00,VWS V14.01,2014-01-02 06:11:00,
2014-01-02 00:16:00,7.9,-0.2,28.82,NW,314,3.1,5.4,69,0.00,,---,0.00,VWS V14.01,2014-01-02 06:16:00,
2014-01-02 00:21:00,7.7,-0.3,28.82,NW,313,3.6,6.3,69,0.00,,---,0.00,VWS V14.01,2014-01-02 06:21:00,
2014-01-02 00:26:00,7.7,-0.3,28.82,WNW,300,4.9,6.3,69,0.00,,---,0.00,VWS V14.01,2014-01-02 06:26:00,
2014-01-02 00:31:00,7.5,-0.5,28.82,WNW,301,0.0,6.3,69,0.00,,---,0.00,VWS V14.01,2014-01-02 06:31:00,
2014-01-02 00:36:00,7.3,-0.7,28.82,NW,305,3.6,6.3,69,0.00,,---,0.00,VWS V14.01,2014-01-02 06:36:00,
2014-01-02 00:41:00,7.2,-0.9,28.82,NW,311,3.6,6.3,69,0.00,,---,0.00,VWS V14.01,2014-01-02 06:41:00,
2014-01-02 00:46:00,7.2,-0.9,28.82,WNW,291,4.0,6.3,69,0.00,,---,0.00,VWS V14.01,2014-01-02 06:46:00,
2014-01-02 00:51:00,7.0,-1.0,28.82,West,268,3.1,6.3,69,0.00,,---,0.00,VWS V14.01,2014-01-02 06:51:00,
2014-01-02 00:57:00,6.8,-1.2,28.82,WNW,299,2.7,6.3,69,0.00,,---,0.00,VWS V14.01,2014-01-02 06:57:00,
2014-01-02 01:02:00,7.0,-1.0,28.82,West,270,3.6,3.6,69,0.00,,---,0.00,VWS V14.01,2014-01-02 07:02:00,
2014-01-02 01:07:00,7.0,-1.0,28.82,West,273,4.0,4.0,69,0.00,,---,0.00,VWS V14.01,2014-01-02 07:07:00,
2014-01-02 01:12:00,7.0,-1.0,28.82,WNW,293,0.0,4.0,69,0.00,,---,0.00,VWS V14.01,2014-01-02 07:12:00,
2014-01-02 01:17:00,6.8,-1.2,28.82,WNW,286,0.0,4.0,69,0.00,,---,0.00,VWS V14.01,2014-01-02 07:17:00,
2014-01-02 01:22:00,6.6,-1.4,28.82,WNW,286,0.0,4.0,69,0.00,,---,0.00,VWS V14.01,2014-01-02 07:22:00,
2014-01-02 01:27:00,6.4,-1.5,28.85,WNW,294,0.0,4.0,69,0.00,,---,0.00,VWS V14.01,2014-01-02 07:27:00,
2014-01-02 01:32:00,6.4,-1.5,28.85,WNW,294,0.0,4.0,69,0.00,,---,0.00,VWS V14.01,2014-01-02 07:32:00,
2014-01-02 01:37:00,6.3,-1.7,28.85,WNW,288,0.0,4.0,69,0.00,,---,0.00,VWS V14.01,2014-01-02 07:37:00,
2014-01-02 01:42:00,6.1,-1.9,28.85,WNW,288,0.0,4.0,69,0.00,,---,0.00,VWS V14.01,2014-01-02 07:42:00,
2014-01-02 01:48:00,6.1,-1.9,28.85,WNW,288,0.0,4.0,69,0.00,,---,0.00,VWS V14.01,2014-01-02 07:48:00,
2014-01-02 01:53:00,6.1,-1.9,28.85,WNW,288,0.0,4.0,69,0.00,,---,0.00,VWS V14.01,2014-01-02 07:53:00,
2014-01-02 01:58:00,5.9,-2.1,28.85,WNW,288,0.0,4.0,69,0.00,,---,0.00,VWS V14.01,2014-01-02 07:58:00,
2014-01-02 02:03:00,5.9,-2.1,28.85,WNW,288,0.0,0.0,69,0.00,,---,0.00,VWS V14.01,2014-01-02 08:03:00,
2014-01-02 02:08:00,5.7,-2.2,28.85,WNW,288,0.0,0.0,69,0.00,,---,0.00,VWS V14.01,2014-01-02 08:08:00,
2014-01-02 02:13:00,5.5,-2.4,28.85,WNW,288,0.0,0.0,69,0.00,,---,0.00,VWS V14.01,2014-01-02 08:13:00,
2014-01-02 02:18:00,5.4,-2.6,28.85,WNW,288,0.0,0.0,69,0.00,,---,0.00,VWS V14.01,2014-01-02 08:18:00,
2014-01-02 02:23:00,5.0,-2.9,28.85,WNW,288,0.0,0.0,69,0.00,,---,0.00,VWS V14.01,2014-01-02 08:23:00,
2014-01-02 02:28:00,4.5,-3.5,28.82,WNW,288,0.0,0.0,69,0.00,,---,0.00,VWS V14.01,2014-01-02 08:28:00,
2014-01-02 02:33:00,4.1,-3.8,28.82,WNW,288,0.0,0.0,69,0.00,,---,0.00,VWS V14.01,2014-01-02 08:33:00,
2014-01-02 02:38:00,3.7,-4.1,28.82,WNW,288,0.0,0.0,69,0.00,,---,0.00,VWS V14.01,2014-01-02 08:38:00,
2014-01-02 02:44:00,3.2,-4.7,28.82,WNW,288,0.0,0.0,69,0.00,,---,0.00,VWS V14.01,2014-01-02 08:44:00,
2014-01-02 02:49:00,2.8,-5.0,28.82,WNW,288,0.0,0.0,69,0.00,,---,0.00,VWS V14.01,2014-01-02 08:49:00,
2014-01-02 02:54:00,2.8,-5.0,28.82,WNW,288,0.0,0.0,69,0.00,,---,0.00,VWS V14.01,2014-01-02 08:54:00,
2014-01-02 02:59:00,2.7,-5.2,28.82,WNW,288,0.0,0.0,69,0.00,,---,0.00,VWS V14.01,2014-01-02 08:59:00,
2014-01-02 03:04:00,2.5,-5.3,28.82,WNW,288,0.0,0.0,69,0.00,,---,0.00,VWS V14.01,2014-01-02 09:04:00,
2014-01-02 03:09:00,2.5,-5.3,28.82,WNW,288,0.0,0.0,69,0.00,,---,0.00,VWS V14.01,2014-01-02 09:09:00,
2014-01-02 03:14:00,2.3,-5.5,28.82,WNW,288,0.0,0.0,69,0.00,,---,0.00,VWS V14.01,2014-01-02 09:14:00,
2014-01-02 03:19:00,2.5,-5.3,28.82,WNW,288,0.0,0.0,69,0.00,,---,0.00,VWS V14.01,2014-01-02 09:19:00,
2014-01-02 03:24:00,2.8,-5.0,28.82,WNW,288,0.0,0.0,69,0.00,,---,0.00,VWS V14.01,2014-01-02 09:24:00,
2014-01-02 03:29:00,3.2,-4.7,28.82,WNW,288,0.0,0.0,69,0.00,,---,0.00,VWS V14.01,2014-01-02 09:29:00,
2014-01-02 03:35:00,3.9,-4.0,28.82,WNW,288,0.0,0.0,69,0.00,,---,0.00,VWS V14.01,2014-01-02 09:35:00,
2014-01-02 03:40:00,4.5,-3.5,28.82,WNW,288,0.0,0.0,69,0.00,,---,0.00,VWS V14.01,2014-01-02 09:40:00,
2014-01-02 03:45:00,4.8,-3.1,28.82,WNW,288,0.0,0.0,69,0.00,,---,0.00,VWS V14.01,2014-01-02 09:45:00,
2014-01-02 03:50:00,5.2,-2.8,28.82,SSW,198,2.7,3.1,69,0.00,,---,0.00,VWS V14.01,2014-01-02 09:50:00,
2014-01-02 03:55:00,5.5,-2.4,28.82,SSW,192,2.7,3.6,69,0.00,,---,0.00,VWS V14.01,2014-01-02 09:55:00,
2014-01-02 04:00:00,5.7,-2.2,28.82,South,189,0.0,0.0,69,0.00,,---,0.00,VWS V14.01,2014-01-02 10:00:00,
2014-01-02 04:05:00,5.9,-2.1,28.82,South,189,0.0,0.0,69,0.00,,---,0.00,VWS V14.01,2014-01-02 10:05:00,
2014-01-02 04:10:00,6.3,-1.7,28.82,South,189,0.0,0.0,69,0.00,,---,0.00,VWS V14.01,2014-01-02 10:10:00,
2014-01-02 04:15:00,6.4,-1.5,28.82,South,189,0.0,0.0,69,0.00,,---,0.00,VWS V14.01,2014-01-02 10:15:00,
2014-01-02 04:21:00,6.8,-1.2,28.82,South,189,0.0,0.0,69,0.00,,---,0.00,VWS V14.01,2014-01-02 10:21:00,
2014-01-02 04:26:00,7.0,-1.0,28.82,South,189,0.0,0.0,69,0.00,,---,0.00,VWS V14.01,2014-01-02 10:26:00,
2014-01-02 04:31:00,7.2,-0.9,28.82,South,189,0.0,0.0,69,0.00,,---,0.00,VWS V14.01,2014-01-02 10:31:00,
2014-01-02 04:36:00,7.7,-0.3,28.82,South,189,0.0,0.0,69,0.00,,---,0.00,VWS V14.01,2014-01-02 10:36:00,
2014-01-02 04:41:00,7.9,-0.2,28.82,South,189,0.0,0.0,69,0.00,,---,0.00,VWS V14.01,2014-01-02 10:41:00,
2014-01-02 04:46:00,8.1,0.0,28.82,South,189,0.0,0.0,69,0.00,,---,0.00,VWS V14.01,2014-01-02 10:46:00,
2014-01-02 04:51:00,8.4,0.4,28.82,South,189,0.0,0.0,69,0.00,,---,0.00,VWS V14.01,2014-01-02 10:51:00,
2014-01-02 04:56:00,8.8,0.7,28.82,South,189,0.0,0.0,69,0.00,,---,0.00,VWS V14.01,2014-01-02 10:56:00,
2014-01-02 05:01:00,9.1,1.0,28.82,South,189,0.0,0.0,69,0.00,,---,0.00,VWS V14.01,2014-01-02 11:01:00,
2014-01-02 05:07:00,9.3,1.2,28.82,South,189,0.0,0.0,69,0.00,,---,0.00,VWS V14.01,2014-01-02 11:07:00,
2014-01-02 05:12:00,9.5,1.4,28.82,South,189,0.0,0.0,69,0.00,,---,0.00,VWS V14.01,2014-01-02 11:12:00,
2014-01-02 05:17:00,9.9,1.7,28.82,South,189,0.0,0.0,69,0.00,,---,0.00,VWS V14.01,2014-01-02 11:17:00,
2014-01-02 05:22:00,10.0,1.9,28.82,South,189,0.0,0.0,69,0.00,,---,0.00,VWS V14.01,2014-01-02 11:22:00,
2014-01-02 05:27:00,10.2,2.1,28.82,South,189,0.0,0.0,69,0.00,,---,0.00,VWS V14.01,2014-01-02 11:27:00,
2014-01-02 05:32:00,10.2,2.1,28.82,South,189,0.0,0.0,69,0.00,,---,0.00,VWS V14.01,2014-01-02 11:32:00,
2014-01-02 05:37:00,10.0,1.9,28.82,South,190,2.2,2.7,69,0.00,,---,0.00,VWS V14.01,2014-01-02 11:37:00,
2014-01-02 05:42:00,10.0,1.9,28.82,SSW,194,0.0,3.6,69,0.00,,---,0.00,VWS V14.01,2014-01-02 11:42:00,
2014-01-02 05:47:00,9.9,1.7,28.82,SSW,194,0.0,3.6,69,0.00,,---,0.00,VWS V14.01,2014-01-02 11:47:00,
2014-01-02 05:52:00,10.0,1.9,28.82,SSW,194,0.0,3.6,69,0.00,,---,0.00,VWS V14.01,2014-01-02 11:52:00,
2014-01-02 05:58:00,10.2,2.1,28.82,SSW,194,0.0,3.6,69,0.00,,---,0.00,VWS V14.01,2014-01-02 11:58:00,
2014-01-02 06:03:00,10.2,2.1,28.82,SSW,194,0.0,0.0,69,0.00,,---,0.00,VWS V14.01,2014-01-02 12:03:00,
2014-01-02 06:08:00,10.2,2.1,28.82,SSW,194,0.0,0.0,69,0.00,,---,0.00,VWS V14.01,2014-01-02 12:08:00,
2014-01-02 06:13:00,10.0,1.9,28.82,SSW,194,0.0,0.0,69,0.00,,---,0.00,VWS V14.01,2014-01-02 12:13:00,
2014-01-02 06:18:00,9.9,1.7,28.82,SSW,194,0.0,0.0,69,0.00,,---,0.00,VWS V14.01,2014-01-02 12:18:00,
2014-01-02 06:23:00,9.5,1.4,28.82,SSW,194,0.0,0.0,69,0.00,,---,0.00,VWS V14.01,2014-01-02 12:23:00,
2014-01-02 06:28:00,9.3,1.2,28.79,SSW,194,0.0,0.0,69,0.00,,---,0.00,VWS V14.01,2014-01-02 12:28:00,
2014-01-02 06:33:00,9.0,0.9,28.79,SSW,194,0.0,0.0,69,0.00,,---,0.00,VWS V14.01,2014-01-02 12:33:00,
2014-01-02 06:38:00,8.6,0.5,28.79,SSW,194,0.0,0.0,69,0.00,,---,0.00,VWS V14.01,2014-01-02 12:38:00,
2014-01-02 06:44:00,8.2,0.2,28.82,SSW,194,0.0,0.0,69,0.00,,---,0.00,VWS V14.01,2014-01-02 12:44:00,
2014-01-02 06:49:00,7.9,-0.2,28.82,SSW,194,0.0,0.0,69,0.00,,---,0.00,VWS V14.01,2014-01-02 12:49:00,
2014-01-02 06:54:00,7.7,-0.3,28.82,SSW,194,0.0,0.0,69,0.00,,---,0.00,VWS V14.01,2014-01-02 12:54:00,
2014-01-02 06:59:00,7.3,-0.7,28.82,SSW,194,0.0,0.0,69,0.00,,---,0.00,VWS V14.01,2014-01-02 12:59:00,
2014-01-02 07:04:00,7.0,-1.0,28.82,SSW,194,0.0,0.0,69,0.00,,---,0.00,VWS V14.01,2014-01-02 13:04:00,
2014-01-02 07:09:00,6.8,-1.2,28.82,SSW,194,0.0,0.0,69,0.00,,---,0.00,VWS V14.01,2014-01-02 13:09:00,
2014-01-02 07:14:00,6.6,-1.4,28.82,SSW,194,0.0,0.0,69,0.00,,---,0.00,VWS V14.01,2014-01-02 13:14:00,
2014-01-02 07:19:00,6.4,-1.5,28.82,SSW,194,0.0,0.0,69,0.00,,---,0.00,VWS V14.01,2014-01-02 13:19:00,
2014-01-02 07:24:00,6.4,-1.5,28.82,SSW,194,0.0,0.0,69,0.00,,---,0.00,VWS V14.01,2014-01-02 13:24:00,
2014-01-02 07:29:00,6.4,-1.5,28.82,SSW,194,0.0,0.0,69,0.00,,---,0.00,VWS V14.01,2014-01-02 13:29:00,
2014-01-02 07:35:00,6.4,-1.5,28.82,SSW,194,0.0,0.0,69,0.00,,---,0.00,VWS V14.01,2014-01-02 13:35:00,
2014-01-02 07:40:00,6.3,-1.7,28.82,SSW,194,0.0,0.0,69,0.00,,---,0.00,VWS V14.01,2014-01-02 13:40:00,
2014-01-02 07:45:00,6.1,-1.9,28.82,SSW,194,0.0,0.0,69,0.00,,---,0.00,VWS V14.01,2014-01-02 13:45:00,
2014-01-02 07:50:00,6.1,-1.9,28.82,SSW,194,0.0,0.0,69,0.00,,---,0.00,VWS V14.01,2014-01-02 13:50:00,
2014-01-02 07:55:00,6.3,-1.7,28.82,SSW,194,0.0,0.0,69,0.00,,---,0.00,VWS V14.01,2014-01-02 13:55:00,
2014-01-02 08:00:00,6.3,-1.7,28.82,SSW,194,0.0,0.0,69,0.00,,---,0.00,VWS V14.01,2014-01-02 14:00:00,
2014-01-02 08:05:00,6.4,-1.5,28.82,SSW,194,0.0,0.0,69,0.00,,---,0.00,VWS V14.01,2014-01-02 14:05:00,
2014-01-02 08:10:00,6.6,-1.4,28.82,SSW,194,0.0,0.0,69,0.00,,---,0.00,VWS V14.01,2014-01-02 14:10:00,
2014-01-02 08:15:00,6.8,-1.2,28.82,SSW,194,0.0,0.0,69,0.00,,---,0.00,VWS V14.01,2014-01-02 14:15:00,
2014-01-02 08:21:00,6.8,-1.2,28.82,SSW,194,0.0,0.0,69,0.00,,---,0.00,VWS V14.01,2014-01-02 14:21:00,
2014-01-02 08:26:00,7.0,-1.0,28.82,SSW,194,0.0,0.0,69,0.00,,---,0.00,VWS V14.01,2014-01-02 14:26:00,
2014-01-02 08:31:00,7.2,-0.9,28.82,SSW,194,0.0,0.0,69,0.00,,---,0.00,VWS V14.01,2014-01-02 14:31:00,
2014-01-02 08:36:00,7.5,-0.5,28.82,SSW,194,0.0,0.0,69,0.00,,---,0.00,VWS V14.01,2014-01-02 14:36:00,
2014-01-02 08:41:00,7.7,-0.3,28.82,SSW,194,0.0,0.0,69,0.00,,---,0.00,VWS V14.01,2014-01-02 14:41:00,
2014-01-02 08:46:00,8.1,0.0,28.82,SSW,194,0.0,0.0,69,0.00,,---,0.00,VWS V14.01,2014-01-02 14:46:00,
2014-01-02 08:51:00,8.6,0.5,28.82,SSW,194,0.0,0.0,69,0.00,,---,0.00,VWS V14.01,2014-01-02 14:51:00,
2014-01-02 08:56:00,9.0,0.9,28.85,SSW,194,0.0,0.0,69,0.00,,---,0.00,VWS V14.01,2014-01-02 14:56:00,
2014-01-02 09:01:00,9.3,1.2,28.85,SSW,194,0.0,0.0,69,0.00,,---,0.00,VWS V14.01,2014-01-02 15:01:00,
2014-01-02 09:06:00,9.7,1.6,28.85,SSW,194,0.0,0.0,69,0.00,,---,0.00,VWS V14.01,2014-01-02 15:06:00,
2014-01-02 09:12:00,10.2,2.1,28.82,SSW,194,0.0,0.0,69,0.00,,---,0.00,VWS V14.01,2014-01-02 15:12:00,
2014-01-02 09:17:00,10.8,2.6,28.82,SSW,194,0.0,0.0,69,0.00,,---,0.00,VWS V14.01,2014-01-02 15:17:00,
2014-01-02 09:22:00,11.1,3.0,28.82,SSW,194,0.0,0.0,69,0.00,,---,0.00,VWS V14.01,2014-01-02 15:22:00,
2014-01-02 09:27:00,11.5,3.3,28.85,SSW,194,0.0,0.0,69,0.00,,---,0.00,VWS V14.01,2014-01-02 15:27:00,
2014-01-02 09:32:00,12.2,4.0,28.85,SSW,194,0.0,0.0,69,0.00,,---,0.00,VWS V14.01,2014-01-02 15:32:00,
2014-01-02 09:37:00,12.9,4.7,28.85,SSW,194,0.0,0.0,69,0.00,,---,0.00,VWS V14.01,2014-01-02 15:37:00,
2014-01-02 09:42:00,13.6,5.4,28.85,SSW,194,0.0,0.0,69,0.00,,---,0.00,VWS V14.01,2014-01-02 15:42:00,
2014-01-02 09:47:00,14.2,7.7,28.85,South,177,0.0,0.0,75,0.00,,---,0.00,VWS V14.01,2014-01-02 15:47:00,
2014-01-02 09:52:00,14.4,7.9,28.85,South,177,0.0,0.0,75,0.00,,---,0.00,VWS V14.01,2014-01-02 15:52:00,
2014-01-02 09:57:00,14.5,8.1,28.85,South,175,0.0,0.0,75,0.00,,---,0.00,VWS V14.01,2014-01-02 15:57:00,
2014-01-02 10:03:00,15.1,8.6,28.85,SSE,159,0.0,0.0,75,0.00,,---,0.00,VWS V14.01,2014-01-02 16:03:00,
2014-01-02 10:08:00,15.4,8.9,28.85,SSE,154,0.0,0.0,75,0.00,,---,0.00,VWS V14.01,2014-01-02 16:08:00,
2014-01-02 10:13:00,15.6,9.1,28.85,SSE,154,3.6,3.6,75,0.00,,---,0.00,VWS V14.01,2014-01-02 16:13:00,
2014-01-02 10:18:00,16.0,9.2,28.85,SSE,160,0.0,4.0,74,0.00,,---,0.00,VWS V14.01,2014-01-02 16:18:00,
2014-01-02 10:23:00,16.5,9.7,28.85,SSE,160,0.0,4.0,74,0.00,,---,0.00,VWS V14.01,2014-01-02 16:23:00,
2014-01-02 10:28:00,17.2,10.4,28.85,SSE,160,3.1,4.0,74,0.00,,---,0.00,VWS V14.01,2014-01-02 16:28:00,
2014-01-02 10:33:00,18.1,11.3,28.85,SSE,160,0.0,4.0,74,0.00,,---,0.00,VWS V14.01,2014-01-02 16:33:00,
2014-01-02 10:38:00,19.0,12.1,28.85,SSE,159,0.0,4.0,74,0.00,,---,0.00,VWS V14.01,2014-01-02 16:38:00,
2014-01-02 10:43:00,19.8,12.2,28.85,SSE,157,0.0,4.0,72,0.00,,---,0.00,VWS V14.01,2014-01-02 16:43:00,
2014-01-02 10:49:00,20.3,12.7,28.85,SSE,155,2.7,4.0,72,0.00,,---,0.00,VWS V14.01,2014-01-02 16:49:00,
2014-01-02 10:54:00,21.0,13.1,28.85,SSE,156,3.1,4.0,71,0.00,,---,0.00,VWS V14.01,2014-01-02 16:54:00,
2014-01-02 10:59:00,21.9,14.0,28.85,SSE,155,4.0,4.0,71,0.00,,---,0.00,VWS V14.01,2014-01-02 16:59:00,
2014-01-02 11:04:00,22.5,14.2,28.85,SSE,156,0.0,4.0,70,0.00,,---,0.00,VWS V14.01,2014-01-02 17:04:00,
2014-01-02 11:09:00,22.8,13.9,28.85,ESE,118,0.0,4.0,68,0.00,,---,0.00,VWS V14.01,2014-01-02 17:09:00,
2014-01-02 11:14:00,23.4,13.7,28.85,ESE,109,0.0,4.0,66,0.00,,---,0.00,VWS V14.01,2014-01-02 17:14:00,
2014-01-02 11:19:00,23.7,13.3,28.85,South,170,0.0,4.0,64,0.00,,---,0.00,VWS V14.01,2014-01-02 17:19:00,
2014-01-02 11:24:00,24.3,13.5,28.85,SSE,162,3.1,4.0,63,0.00,,---,0.00,VWS V14.01,2014-01-02 17:24:00,
2014-01-02 11:29:00,25.2,13.6,28.85,SE,133,2.7,4.0,61,0.00,,---,0.00,VWS V14.01,2014-01-02 17:29:00,
2014-01-02 11:35:00,25.7,13.0,28.85,SE,143,2.7,4.0,58,0.00,,---,0.00,VWS V14.01,2014-01-02 17:35:00,
2014-01-02 11:40:00,26.1,12.1,28.85,NE,48,2.7,4.9,55,0.00,,---,0.00,VWS V14.01,2014-01-02 17:40:00,
2014-01-02 11:45:00,26.2,11.9,28.85,SSE,159,3.6,4.9,54,0.00,,---,0.00,VWS V14.01,2014-01-02 17:45:00,
2014-01-02 11:50:00,26.8,11.5,28.85,ESE,106,3.6,6.3,52,0.04,,---,0.04,VWS V14.01,2014-01-02 17:50:00,
2014-01-02 11:55:00,27.0,11.3,28.85,East,80,0.0,6.3,51,0.04,,---,0.04,VWS V14.01,2014-01-02 17:55:00,
2014-01-02 12:00:00,27.0,9.4,28.82,ENE,75,3.6,3.6,47,0.04,,---,0.04,VWS V14.01,2014-01-02 18:00:00,
2014-01-02 12:05:00,27.0,8.9,28.82,ESE,105,2.7,5.4,46,0.04,,---,0.04,VWS V14.01,2014-01-02 18:05:00,
2014-01-02 12:10:00,27.0,8.9,28.82,SE,131,3.1,5.4,46,0.04,,---,0.04,VWS V14.01,2014-01-02 18:10:00,
2014-01-02 12:16:00,27.3,9.3,28.82,East,87,3.1,5.4,46,0.04,,---,0.04,VWS V14.01,2014-01-02 18:16:00,
2014-01-02 12:21:00,27.7,9.6,28.82,ENE,58,2.2,5.4,46,0.08,,---,0.08,VWS V14.01,2014-01-02 18:21:00,
2014-01-02 12:26:00,27.9,9.8,28.82,SE,138,4.0,5.4,46,0.08,,---,0.08,VWS V14.01,2014-01-02 18:26:00,
2014-01-02 12:31:00,28.4,10.3,28.82,ENE,76,3.6,5.4,46,0.08,,---,0.08,VWS V14.01,2014-01-02 18:31:00,
2014-01-02 12:36:00,28.6,9.9,28.82,SE,128,4.9,5.4,45,0.08,,---,0.08,VWS V14.01,2014-01-02 18:36:00,
2014-01-02 12:41:00,28.6,9.4,28.79,East,84,2.2,5.4,44,0.08,,---,0.08,VWS V14.01,2014-01-02 18:41:00,
2014-01-02 12:46:00,28.6,9.4,28.79,SE,131,2.7,5.4,44,0.08,,---,0.08,VWS V14.01,2014-01-02 18:46:00,
2014-01-02 12:51:00,28.9,9.8,28.79,ESE,109,3.1,5.4,44,0.08,,---,0.08,VWS V14.01,2014-01-02 18:51:00,
2014-01-02 12:57:00,29.1,9.9,28.79,East,101,4.9,5.4,44,0.08,,---,0.08,VWS V14.01,2014-01-02 18:57:00,
2014-01-02 13:02:00,29.3,10.1,28.79,East,84,2.2,4.0,44,0.04,,---,0.08,VWS V14.01,2014-01-02 19:02:00,
2014-01-02 13:07:00,29.5,10.3,28.79,ESE,117,3.1,5.8,44,0.04,,---,0.08,VWS V14.01,2014-01-02 19:07:00,
2014-01-02 13:12:00,29.5,10.3,28.79,SE,135,4.9,5.8,44,0.04,,---,0.08,VWS V14.01,2014-01-02 19:12:00,
2014-01-02 13:17:00,29.7,9.9,28.79,ENE,66,3.6,5.8,43,0.04,,---,0.08,VWS V14.01,2014-01-02 19:17:00,
2014-01-02 13:22:00,29.8,10.1,28.79,SSE,166,6.3,6.3,43,0.04,,---,0.08,VWS V14.01,2014-01-02 19:22:00,
2014-01-02 13:27:00,30.2,10.9,28.79,SE,142,4.9,6.3,44,0.04,,---,0.08,VWS V14.01,2014-01-02 19:27:00,
2014-01-02 13:32:00,30.6,10.7,28.79,East,91,2.2,6.3,43,0.04,,---,0.08,VWS V14.01,2014-01-02 19:32:00,
2014-01-02 13:37:00,30.7,10.9,28.79,East,97,3.6,6.3,43,0.04,,---,0.08,VWS V14.01,2014-01-02 19:37:00,
2014-01-02 13:43:00,31.1,11.2,28.79,East,80,2.7,6.3,43,0.04,,---,0.08,VWS V14.01,2014-01-02 19:43:00,
2014-01-02 13:48:00,31.3,11.4,28.79,ESE,106,0.0,6.3,43,0.04,,---,0.08,VWS V14.01,2014-01-02 19:48:00,
2014-01-02 13:53:00,31.6,11.7,28.79,East,96,2.2,6.3,43,0.04,,---,0.08,VWS V14.01,2014-01-02 19:53:00,
2014-01-02 13:58:00,32.2,12.2,28.79,SE,137,3.6,6.3,43,0.04,,---,0.08,VWS V14.01,2014-01-02 19:58:00,
2014-01-02 14:03:00,32.5,12.5,28.79,SSE,148,2.7,7.6,43,0.00,,---,0.08,VWS V14.01,2014-01-02 20:03:00,
2014-01-02 14:08:00,32.7,12.7,28.79,SSE,162,4.0,7.6,43,0.00,,---,0.08,VWS V14.01,2014-01-02 20:08:00,
2014-01-02 14:13:00,33.1,13.0,28.79,ESE,106,0.0,7.6,43,0.00,,---,0.08,VWS V14.01,2014-01-02 20:13:00,
2014-01-02 14:18:00,33.1,12.5,28.79,NNE,20,3.6,7.6,42,0.00,,---,0.08,VWS V14.01,2014-01-02 20:18:00,
2014-01-02 14:23:00,32.5,12.0,28.79,North,9,2.7,7.6,42,0.00,,---,0.08,VWS V14.01,2014-01-02 20:23:00,
2014-01-02 14:29:00,32.5,12.0,28.79,NNE,33,2.7,7.6,42,0.00,,---,0.08,VWS V14.01,2014-01-02 20:29:00,
2014-01-02 14:34:00,32.7,12.2,28.79,NNE,28,4.0,7.6,42,0.00,,---,0.08,VWS V14.01,2014-01-02 20:34:00,
2014-01-02 14:39:00,32.7,12.2,28.79,North,0,5.4,7.6,42,0.00,,---,0.08,VWS V14.01,2014-01-02 20:39:00,
2014-01-02 14:44:00,32.2,11.7,28.79,ENE,75,2.7,7.6,42,0.00,,---,0.08,VWS V14.01,2014-01-02 20:44:00,
2014-01-02 14:49:00,32.2,11.7,28.79,NNE,29,5.4,7.6,42,0.00,,---,0.08,VWS V14.01,2014-01-02 20:49:00,
2014-01-02 14:54:00,31.6,11.2,28.79,NE,36,3.6,7.6,42,0.00,,---,0.08,VWS V14.01,2014-01-02 20:54:00,
2014-01-02 14:59:00,30.9,10.5,28.79,ENE,76,3.6,7.6,42,0.00,,---,0.08,VWS V14.01,2014-01-02 20:59:00,
2014-01-02 15:04:00,30.4,10.1,28.79,ENE,65,3.1,5.8,42,0.00,,---,0.08,VWS V14.01,2014-01-02 21:04:00,
2014-01-02 15:10:00,30.0,9.7,28.79,NNE,20,4.0,8.1,42,0.00,,---,0.08,VWS V14.01,2014-01-02 21:10:00,
2014-01-02 15:15:00,29.5,9.8,28.79,NNE,31,6.3,8.1,43,0.00,,---,0.08,VWS V14.01,2014-01-02 21:15:00,
2014-01-02 15:20:00,28.9,9.3,28.79,North,4,6.3,8.1,43,0.00,,---,0.08,VWS V14.01,2014-01-02 21:20:00,
2014-01-02 15:25:00,28.6,8.9,28.79,ENE,58,4.0,8.7,43,0.00,,---,0.08,VWS V14.01,2014-01-02 21:25:00,
2014-01-02 15:30:00,28.2,9.1,28.79,NNW,342,0.0,8.7,44,0.00,,---,0.08,VWS V14.01,2014-01-02 21:30:00,
2014-01-02 15:35:00,27.7,8.6,28.79,NNE,25,2.7,9.2,44,0.00,,---,0.08,VWS V14.01,2014-01-02 21:35:00,
2014-01-02 15:40:00,27.3,8.3,28.79,ENE,57,4.0,9.2,44,0.00,,---,0.08,VWS V14.01,2014-01-02 21:40:00,
2014-01-02 15:45:00,27.1,8.6,28.79,NNE,23,5.4,9.2,45,0.00,,---,0.08,VWS V14.01,2014-01-02 21:45:00,
2014-01-02 15:50:00,26.6,8.1,28.79,NE,56,6.3,10.1,45,0.00,,---,0.08,VWS V14.01,2014-01-02 21:50:00,
2014-01-02 15:56:00,26.1,8.1,28.79,NE,38,2.7,10.1,46,0.00,,---,0.08,VWS V14.01,2014-01-02 21:56:00,
2014-01-02 16:01:00,25.5,7.6,28.79,NNE,29,6.3,6.3,46,0.00,,---,0.08,VWS V14.01,2014-01-02 22:01:00,
2014-01-02 16:06:00,25.2,7.8,28.79,NNE,12,0.0,7.6,47,0.00,,---,0.08,VWS V14.01,2014-01-02 22:06:00,
2014-01-02 16:11:00,24.4,7.6,28.79,NE,55,3.1,8.3,48,0.00,,---,0.08,VWS V14.01,2014-01-02 22:11:00,
2014-01-02 16:16:00,24.1,7.7,28.79,NNE,21,5.4,8.3,49,0.00,,---,0.08,VWS V14.01,2014-01-02 22:16:00,
2014-01-02 16:21:00,23.5,7.2,28.79,NE,52,3.6,8.3,49,0.00,,---,0.08,VWS V14.01,2014-01-02 22:21:00,
2014-01-02 16:26:00,23.0,7.6,28.79,NNE,21,3.6,8.3,51,0.00,,---,0.08,VWS V14.01,2014-01-02 22:26:00,
2014-01-02 16:31:00,22.8,7.8,28.79,NNE,29,3.6,8.3,52,0.00,,---,0.08,VWS V14.01,2014-01-02 22:31:00,
2014-01-02 16:36:00,22.5,7.5,28.79,North,353,3.6,8.3,52,0.00,,---,0.08,VWS V14.01,2014-01-02 22:36:00,
2014-01-02 16:42:00,22.3,7.8,28.79,North,0,5.4,8.7,53,0.00,,---,0.08,VWS V14.01,2014-01-02 22:42:00,
2014-01-02 16:47:00,22.1,7.6,28.79,NE,34,2.2,8.7,53,0.00,,---,0.08,VWS V14.01,2014-01-02 22:47:00,
2014-01-02 16:52:00,21.9,7.4,28.79,NE,42,6.3,8.7,53,0.00,,---,0.08,VWS V14.01,2014-01-02 22:52:00,
2014-01-02 16:57:00,21.7,7.3,28.79,North,6,4.9,8.7,53,0.00,,---,0.08,VWS V14.01,2014-01-02 22:57:00,
2014-01-02 17:02:00,21.6,7.1,28.79,North,357,3.1,3.6,53,0.00,,---,0.08,VWS V14.01,2014-01-02 23:02:00,
2014-01-02 17:07:00,21.2,7.2,28.79,North,357,2.7,5.8,54,0.00,,---,0.08,VWS V14.01,2014-01-02 23:07:00,
2014-01-02 17:12:00,21.0,7.0,28.79,NNE,24,3.6,5.8,54,0.00,,---,0.08,VWS V14.01,2014-01-02 23:12:00,
2014-01-02 17:17:00,20.7,6.7,28.79,NNE,14,3.6,5.8,54,0.00,,---,0.08,VWS V14.01,2014-01-02 23:17:00,
2014-01-02 17:22:00,20.3,6.3,28.79,North,0,4.9,8.1,54,0.00,,---,0.08,VWS V14.01,2014-01-02 23:22:00,
2014-01-02 17:27:00,20.1,6.2,28.79,NE,34,3.6,8.1,54,0.00,,---,0.08,VWS V14.01,2014-01-02 23:27:00,
2014-01-02 17:33:00,19.8,5.8,28.79,NE,38,3.6,8.1,54,0.00,,---,0.08,VWS V14.01,2014-01-02 23:33:00,
2014-01-02 17:38:00,19.4,5.9,28.79,NNE,30,3.6,8.1,55,0.00,,---,0.08,VWS V14.01,2014-01-02 23:38:00,
2014-01-02 17:43:00,19.0,5.5,28.79,NNE,19,3.1,8.1,55,0.00,,---,0.08,VWS V14.01,2014-01-02 23:43:00,
2014-01-02 17:48:00,18.9,5.4,28.79,NNE,22,4.0,8.1,55,0.00,,---,0.08,VWS V14.01,2014-01-02 23:48:00,
2014-01-02 17:53:00,18.5,5.0,28.79,NNE,29,4.9,8.1,55,0.00,,---,0.08,VWS V14.01,2014-01-02 23:53:00,
2014-01-02 17:58:00,18.3,5.3,28.82,NE,41,2.7,9.2,56,0.00,,---,0.08,VWS V14.01,2014-01-02 23:58:00,
2014-01-02 18:03:00,18.1,5.1,28.82,NNE,19,5.4,6.3,56,0.00,,---,0.08,VWS V14.01,2014-01-03 00:03:00,
2014-01-02 18:08:00,17.8,4.8,28.82,NNE,24,6.3,6.7,56,0.00,,---,0.08,VWS V14.01,2014-01-03 00:08:00,
2014-01-02 18:13:00,17.6,5.0,28.82,NE,35,2.7,6.7,57,0.00,,---,0.08,VWS V14.01,2014-01-03 00:13:00,
2014-01-02 18:19:00,17.4,4.8,28.82,North,8,4.0,6.7,57,0.00,,---,0.08,VWS V14.01,2014-01-03 00:19:00,
2014-01-02 18:24:00,17.2,4.6,28.82,NNE,14,4.0,6.7,57,0.00,,---,0.08,VWS V14.01,2014-01-03 00:24:00,
2014-01-02 18:29:00,17.1,4.5,28.82,NE,34,2.7,6.7,57,0.00,,---,0.08,VWS V14.01,2014-01-03 00:29:00,
2014-01-02 18:34:00,16.9,4.3,28.82,NE,35,3.6,6.7,57,0.00,,---,0.08,VWS V14.01,2014-01-03 00:34:00,
2014-01-02 18:39:00,16.7,4.5,28.82,NNE,18,5.4,8.1,58,0.00,,---,0.08,VWS V14.01,2014-01-03 00:39:00,
2014-01-02 18:44:00,16.7,4.5,28.82,NNE,25,3.6,8.1,58,0.00,,---,0.08,VWS V14.01,2014-01-03 00:44:00,
2014-01-02 18:49:00,16.5,4.3,28.82,NE,50,5.4,8.1,58,0.00,,---,0.08,VWS V14.01,2014-01-03 00:49:00,
2014-01-02 18:54:00,16.3,4.2,28.82,NE,50,3.1,8.1,58,0.00,,---,0.08,VWS V14.01,2014-01-03 00:54:00,
2014-01-02 19:00:00,16.2,4.0,28.82,NE,44,4.0,8.1,58,0.00,,---,0.08,VWS V14.01,2014-01-03 01:00:00,
2014-01-02 19:05:00,15.8,4.0,28.82,NNE,29,0.0,5.8,59,0.00,,---,0.08,VWS V14.01,2014-01-03 01:05:00,
2014-01-02 19:10:00,15.8,4.0,28.82,NNE,29,2.7,6.3,59,0.00,,---,0.08,VWS V14.01,2014-01-03 01:10:00,
2014-01-02 19:15:00,15.6,3.8,28.82,NNE,16,3.1,6.3,59,0.00,,---,0.08,VWS V14.01,2014-01-03 01:15:00,
2014-01-02 19:20:00,15.4,3.7,28.82,NE,42,3.1,6.3,59,0.00,,---,0.08,VWS V14.01,2014-01-03 01:20:00,
2014-01-02 19:25:00,15.4,3.7,28.82,NNE,16,4.0,6.3,59,0.00,,---,0.08,VWS V14.01,2014-01-03 01:25:00,
2014-01-02 19:30:00,15.3,3.9,28.82,NNE,15,3.1,6.3,60,0.00,,---,0.08,VWS V14.01,2014-01-03 01:30:00,
2014-01-02 19:35:00,15.3,3.9,28.82,NE,45,3.6,6.3,60,0.00,,---,0.08,VWS V14.01,2014-01-03 01:35:00,
2014-01-02 19:40:00,15.1,3.7,28.82,NE,45,5.4,6.3,60,0.00,,---,0.08,VWS V14.01,2014-01-03 01:40:00,
2014-01-02 19:46:00,14.9,3.5,28.82,NE,54,0.0,6.3,60,0.00,,---,0.08,VWS V14.01,2014-01-03 01:46:00,
2014-01-02 19:51:00,14.7,3.4,28.82,NE,39,2.7,6.3,60,0.00,,---,0.08,VWS V14.01,2014-01-03 01:51:00,
2014-01-02 19:56:00,14.5,3.2,28.82,NNE,24,2.2,6.3,60,0.00,,---,0.08,VWS V14.01,2014-01-03 01:56:00,
2014-01-02 20:01:00,14.4,3.0,28.82,NE,36,3.6,4.9,60,0.00,,---,0.08,VWS V14.01,2014-01-03 02:01:00,
2014-01-02 20:06:00,14.4,3.0,28.82,NNE,12,0.0,4.9,60,0.00,,---,0.08,VWS V14.01,2014-01-03 02:06:00,
2014-01-02 20:11:00,14.4,3.0,28.82,NNE,18,2.7,4.9,60,0.00,,---,0.08,VWS V14.01,2014-01-03 02:11:00,
2014-01-02 20:16:00,14.2,3.2,28.82,North,357,3.1,5.4,61,0.00,,---,0.08,VWS V14.01,2014-01-03 02:16:00,
2014-01-02 20:21:00,14.2,3.2,28.82,NE,38,2.7,5.4,61,0.00,,---,0.08,VWS V14.01,2014-01-03 02:21:00,
2014-01-02 20:26:00,14.2,3.2,28.82,NNE,22,0.0,6.3,61,0.00,,---,0.08,VWS V14.01,2014-01-03 02:26:00,
2014-01-02 20:32:00,14.2,3.2,28.82,NNE,13,3.1,6.3,61,0.00,,---,0.08,VWS V14.01,2014-01-03 02:32:00,
2014-01-02 20:37:00,14.2,3.6,28.82,NNE,23,4.9,6.3,62,0.00,,---,0.08,VWS V14.01,2014-01-03 02:37:00,
2014-01-02 20:42:00,14.2,3.6,28.82,NNE,28,5.4,6.3,62,0.00,,---,0.08,VWS V14.01,2014-01-03 02:42:00,
2014-01-02 20:47:00,14.0,3.4,28.82,NNE,31,3.1,6.3,62,0.00,,---,0.08,VWS V14.01,2014-01-03 02:47:00,
2014-01-02 20:52:00,13.8,3.2,28.82,ENE,62,0.0,6.3,62,0.00,,---,0.08,VWS V14.01,2014-01-03 02:52:00,
2014-01-02 20:57:00,13.8,3.2,28.82,NE,47,0.0,6.3,62,0.00,,---,0.08,VWS V14.01,2014-01-03 02:57:00,
2014-01-02 21:02:00,13.8,3.2,28.82,NNE,18,2.7,4.0,62,0.00,,---,0.08,VWS V14.01,2014-01-03 03:02:00,
2014-01-02 21:07:00,13.6,3.0,28.82,NE,37,0.0,4.9,62,0.00,,---,0.08,VWS V14.01,2014-01-03 03:07:00,
2014-01-02 21:13:00,13.6,3.0,28.82,NE,45,0.0,4.9,62,0.00,,---,0.08,VWS V14.01,2014-01-03 03:13:00,
2014-01-02 21:18:00,13.5,2.9,28.82,ENE,68,0.0,4.9,62,0.00,,---,0.08,VWS V14.01,2014-01-03 03:18:00,
2014-01-02 21:23:00,13.3,2.7,28.82,NE,34,0.0,4.9,62,0.00,,---,0.08,VWS V14.01,2014-01-03 03:23:00,
2014-01-02 21:28:00,13.1,2.5,28.82,ENE,57,2.7,4.9,62,0.00,,---,0.08,VWS V14.01,2014-01-03 03:28:00,
2014-01-02 21:33:00,12.9,2.4,28.82,ENE,57,0.0,4.9,62,0.00,,---,0.08,VWS V14.01,2014-01-03 03:33:00,
2014-01-02 21:38:00,12.9,2.4,28.82,ENE,57,0.0,4.9,62,0.00,,---,0.08,VWS V14.01,2014-01-03 03:38:00,
2014-01-02 21:43:00,12.7,2.2,28.82,ENE,57,0.0,4.9,62,0.00,,---,0.08,VWS V14.01,2014-01-03 03:43:00,
2014-01-02 21:48:00,12.7,2.2,28.82,ENE,69,0.0,4.9,62,0.00,,---,0.08,VWS V14.01,2014-01-03 03:48:00,
2014-01-02 21:54:00,12.6,2.0,28.82,ENE,69,0.0,4.9,62,0.00,,---,0.08,VWS V14.01,2014-01-03 03:54:00,
2014-01-02 21:59:00,12.4,1.9,28.82,ENE,70,0.0,4.9,62,0.00,,---,0.08,VWS V14.01,2014-01-03 03:59:00,
2014-01-02 22:04:00,12.4,1.9,28.82,ENE,69,0.0,0.0,62,0.00,,---,0.08,VWS V14.01,2014-01-03 04:04:00,
2014-01-02 22:09:00,12.4,1.9,28.82,ENE,66,0.0,4.0,62,0.00,,---,0.08,VWS V14.01,2014-01-03 04:09:00,
2014-01-02 22:14:00,12.2,1.7,28.79,ENE,65,3.1,4.0,62,0.00,,---,0.08,VWS V14.01,2014-01-03 04:14:00,
2014-01-02 22:19:00,12.2,1.7,28.79,ENE,59,3.1,4.0,62,0.00,,---,0.08,VWS V14.01,2014-01-03 04:19:00,
2014-01-02 22:24:00,12.0,1.5,28.79,East,81,0.0,4.0,62,0.00,,---,0.08,VWS V14.01,2014-01-03 04:24:00,
2014-01-02 22:29:00,12.0,1.5,28.79,East,79,0.0,4.0,62,0.00,,---,0.08,VWS V14.01,2014-01-03 04:29:00,
2014-01-02 22:35:00,11.8,1.3,28.79,East,79,0.0,4.0,62,0.00,,---,0.08,VWS V14.01,2014-01-03 04:35:00,
2014-01-02 22:40:00,11.8,1.3,28.79,East,79,0.0,4.0,62,0.00,,---,0.08,VWS V14.01,2014-01-03 04:40:00,
2014-01-02 22:45:00,11.7,1.2,28.79,East,79,0.0,4.0,62,0.00,,---,0.08,VWS V14.01,2014-01-03 04:45:00,
2014-01-02 22:50:00,11.7,1.2,28.79,East,79,0.0,4.0,62,0.00,,---,0.08,VWS V14.01,2014-01-03 04:50:00,
2014-01-02 22:55:00,11.7,1.2,28.79,East,79,0.0,4.0,62,0.00,,---,0.08,VWS V14.01,2014-01-03 04:55:00,
2014-01-02 23:00:00,11.7,1.2,28.79,East,79,0.0,0.0,62,0.00,,---,0.08,VWS V14.01,2014-01-03 05:00:00,
2014-01-02 23:01:00,11.7,1.2,28.79,East,79,0.0,0.0,62,0.00,,---,0.08,VWS V14.01,2014-01-03 05:01:00,
2014-01-02 23:02:00,11.7,1.2,28.79,East,79,0.0,0.0,62,0.00,,---,0.08,VWS V14.01,2014-01-03 05:02:00,
2014-01-02 23:04:00,11.7,1.2,28.79,East,79,0.0,0.0,62,0.00,,---,0.08,VWS V14.01,2014-01-03 05:04:00,
2014-01-02 23:09:00,11.7,1.2,28.79,East,79,0.0,0.0,62,0.00,,---,0.08,VWS V14.01,2014-01-03 05:09:00,
2014-01-02 23:14:00,11.7,1.2,28.79,East,79,0.0,3.1,62,0.00,,---,0.08,VWS V14.01,2014-01-03 05:14:00,
2014-01-02 23:19:00,11.8,1.3,28.79,East,79,0.0,3.6,62,0.00,,---,0.08,VWS V14.01,2014-01-03 05:19:00,
2014-01-02 23:24:00,11.8,1.3,28.79,East,79,2.2,3.6,62,0.00,,---,0.08,VWS V14.01,2014-01-03 05:24:00,
2014-01-02 23:29:00,12.0,1.5,28.79,East,79,0.0,3.6,62,0.00,,---,0.08,VWS V14.01,2014-01-03 05:29:00,
2014-01-02 23:34:00,12.0,1.5,28.79,East,79,0.0,4.0,62,0.00,,---,0.08,VWS V14.01,2014-01-03 05:34:00,
2014-01-02 23:39:00,12.0,1.5,28.79,East,79,0.0,4.0,62,0.00,,---,0.08,VWS V14.01,2014-01-03 05:39:00,
2014-01-02 23:45:00,12.0,1.5,28.79,East,79,3.1,4.0,62,0.00,,---,0.08,VWS V14.01,2014-01-03 05:45:00,
2014-01-02 23:50:00,12.2,1.7,28.79,East,79,0.0,4.0,62,0.00,,---,0.08,VWS V14.01,2014-01-03 05:50:00,
2014-01-02 23:55:00,12.2,1.7,28.79,ENE,78,0.0,4.0,62,0.00,,---,0.08,VWS V14.01,2014-01-03 05:55:00,